[[{"header":{"parameterUnit":"m.s-1","parameterCategory":1,"la1":30.2991,"la2":30.254,"lo1":-89.0895,"lo2":-89.0444,"dy":0.0017,"dx":0.0017,"nx":28,"ny":28,"refTime":"2024-08-12T03:00:00:Z","depth":0,"parameterNumber":2,"parameterNumberName":"U-component_of_WINDS"},"data":[0,0,0,0,0,0,0,0,0,0,0,0,0,0,0,0,0,0,0,0,0,0,0,0,0,0,0,0,0,0,0,0,0,0,0,0,0,0,0,0,0,0,0,0,0,0,0,0,0,0,0,0,0,0,0,0,0,0,3.817,3.8171,0,3.8328,3.833,3.8331,3.8291,3.8288,3.8285,3.8282,3.8446,3.8453,3.846,0,0,0,0,0,0,0,0,0,0,0,0,0,3.7834,3.784,3.8169,3.8171,3.8173,3.8327,3.833,3.8332,3.8292,3.8288,3.8284,3.8281,3.8444,3.8452,3.8461,0,0,0,0,0,0,0,0,0,0,0,0,0,3.7985,3.7842,3.8169,3.8172,3.8174,3.8327,3.833,3.8332,3.8293,3.8288,3.8283,3.8279,3.8441,3.8451,3.8462,3.8622,0,0,3.8495,3.85,0,0,0,0,0,0,0,0,3.7976,3.7997,3.817,3.8172,3.8175,3.8285,3.8271,3.843,3.8294,3.8248,3.8282,3.8277,3.8396,3.8411,3.8451,3.863,3.8637,3.8496,3.8503,3.8508,3.8511,0,0,0,0,0,0,0,3.7966,3.799,3.8232,3.8172,3.8175,3.8166,3.8182,3.8301,3.8346,3.8251,3.8249,3.8268,3.8397,3.844,3.8454,3.864,3.8496,3.8506,3.8512,3.8517,3.8957,3.8962,0,0,0,0,0,0,3.7953,3.7981,3.8227,3.8237,3.8062,3.8176,3.8194,3.8254,3.8345,3.8354,3.8272,3.8266,3.8424,3.8441,3.846,3.8652,3.8508,3.8518,3.8524,3.8952,3.8958,3.8964,0,0,0,0,0,0,3.7946,3.7975,3.8221,3.8109,3.8139,3.8186,3.8255,3.826,3.8303,3.836,3.8368,3.8308,3.8421,3.8444,3.8582,3.8657,3.8523,3.8533,3.8946,3.8954,3.8961,3.9039,0,0,0,0,0,0,3.7937,3.7973,3.8034,3.811,3.8145,3.834,3.8259,3.8266,3.8322,3.8315,3.8396,3.8405,3.8419,3.8566,3.8593,3.867,3.8541,3.8939,3.895,3.8959,3.903,3.9049,3.9065,0,0,0,0,0,3.7925,3.8051,3.8038,3.8068,3.8223,3.8345,3.8365,3.8378,3.8328,3.839,3.8427,3.8403,3.8645,3.858,3.861,3.8692,3.8935,3.8947,3.8958,3.9023,3.9045,3.9064,0,0,0,0,0,0,3.7984,3.8061,3.8047,3.8202,3.8267,3.8338,3.8416,3.8401,3.8483,3.8473,3.8486,3.8505,3.8645,3.8682,3.8609,3.8851,3.8783,3.8801,3.8822,3.8844,3.8861,3.8848,3.855,0,0,0,0,0,3.8014,3.8107,3.8169,3.8299,3.8333,3.8369,3.8423,3.8427,3.8495,3.8523,3.8569,3.8637,3.8728,3.8788,3.8875,3.9036,3.9052,3.9107,3.9124,3.9138,3.9153,3.9239,3.9264,3.9002,3.9002,3.9002,0,0,3.8079,3.8133,3.8191,3.8313,3.8364,3.8459,3.8393,3.8496,3.8567,3.8539,3.8671,3.8707,3.8784,3.8933,3.9001,3.8968,3.9229,3.9152,3.9163,3.9171,3.9254,3.9279,3.9301,3.901,3.9009,3.9007,0,0,3.8246,3.8296,3.8409,3.8462,3.8539,3.8562,3.8589,3.8663,3.8686,3.8818,3.8799,3.8883,3.904,3.9095,3.9143,3.933,3.931,3.9358,3.9448,3.9532,3.9552,3.9571,3.9636,3.966,3.9373,3.9373,3.9373,0,3.8317,3.8459,3.847,3.8575,3.8629,3.8607,3.8721,3.8772,3.8874,3.8912,3.8874,3.907,3.912,3.9281,3.9326,3.9366,3.9397,3.9348,3.9549,3.9567,3.9584,3.9647,3.9672,3.9378,3.9378,3.9377,3.9377,0,3.8542,3.8641,3.8723,3.8822,3.8885,3.8995,3.9022,3.9085,3.9083,3.911,3.9245,3.9304,3.9402,3.9441,3.9441,3.9602,3.9579,3.9545,3.9476,3.9614,3.9673,3.9697,3.9386,3.9384,3.9382,3.9381,0,0,3.8751,3.8853,3.8883,3.8926,3.901,3.9087,3.9195,3.929,3.9343,3.9415,3.9505,3.9638,3.9607,3.9662,3.9668,3.9742,3.9884,3.9698,3.97,3.973,4.0064,4.0088,4.0116,3.9872,3.9876,3.988,4.0057,0,3.8924,3.9114,3.9126,3.9298,3.9389,3.9369,3.9463,3.9524,3.9553,3.9634,3.9665,3.9759,3.971,3.9743,3.9815,3.9851,3.9951,3.9839,3.9956,3.996,3.9937,4.0147,4.0174,4.0338,4.008,4.0084,4.0087,0,3.9152,3.9229,3.941,3.9479,3.9518,3.9602,3.9689,3.9768,3.9837,3.9852,3.9913,3.9908,4.0019,3.9946,4.0099,4.0022,4.0071,4.0096,4.0102,4.0113,4.0031,4.0163,4.0391,4.0415,4.0124,4.0121,4.0118,0,3.9285,3.9434,3.9561,3.9599,3.9684,3.9743,3.9781,3.9845,3.9901,3.9978,4.0014,4.0103,4.0152,4.0221,4.024,4.0186,4.0392,4.0322,4.0407,4.0407,4.0451,4.0448,4.069,4.0484,4.0484,4.0483,4.0483,0,3.9477,3.9589,3.9622,3.97,3.9824,3.9836,3.9958,3.9993,4.005,4.0134,4.0122,4.0202,4.0223,4.0306,4.0322,4.0445,4.0468,4.0483,4.0486,4.0484,4.0481,4.0515,4.0504,4.049,4.0489,4.0487,4.0486,0,3.9647,3.9674,3.9811,3.9879,3.9898,3.9986,4.0044,4.0119,4.0145,4.0252,4.0278,4.0319,4.0416,4.0442,4.0559,4.057,4.0714,4.0707,4.0691,4.0691,4.0775,4.0766,4.1045,4.1082,4.0853,4.0856,4.0857,0,3.9768,3.9852,3.9929,3.9984,4.0024,4.0114,4.017,4.0186,4.0245,4.0329,4.0394,4.0489,4.0567,4.0723,4.0763,4.0852,4.0846,4.0938,4.086,4.0855,4.0847,4.0841,4.0849,4.0953,4.0955,4.0957,4.0959,0,3.9978,3.9987,4.0069,4.0155,4.0222,4.0291,4.0357,4.0403,4.0428,4.0495,4.0594,4.0654,4.0772,4.0867,4.0957,4.0996,4.0982,4.0983,4.1008,4.1006,4.0993,4.1,4.0731,4.0977,4.0975,4.0974,4.0973,4.0972,4.0127,4.0201,4.0265,4.0356,4.0407,4.0469,4.0542,4.0576,4.0659,4.0756,4.076,4.0867,4.0933,4.1051,4.1096,4.1179,4.1152,4.1188,4.1197,4.1205,4.1212,4.098,4.1196,4.1196,4.1195,4.1195,4.1194,0,4.0336,4.0376,4.046,4.0552,4.0623,4.0603,4.0674,4.0735,4.0829,4.0892,4.0967,4.108,4.1172,4.1219,4.131,4.1368,4.1363,4.1391,4.1387,4.1396,4.1232,4.1201,4.1393,4.1393,4.1393,4.1393,4.1393,4.1393,4.0454,4.0577,4.0593,4.0741,4.0781,4.0885,4.0927,4.0984,4.1033,4.1159,4.1235,4.1264,4.132,4.1415,4.1498,4.1509,4.1543,4.1574,4.1582,4.1428,4.1407,4.1388,4.1359,4.1581,4.1581,4.1739,4.174,4.1741]},{"header":{"parameterUnit":"m.s-1","parameterCategory":1,"la1":30.2991,"la2":30.254,"lo1":-89.0895,"lo2":-89.0444,"dy":0.0017,"dx":0.0017,"nx":28,"ny":28,"refTime":"2024-08-12T03:00:00:Z","depth":0,"parameterNumber":3,"parameterNumberName":"V-component_of_WINDS"},"data":[0,0,0,0,0,0,0,0,0,0,0,0,0,0,0,0,0,0,0,0,0,0,0,0,0,0,0,0,0,0,0,0,0,0,0,0,0,0,0,0,0,0,0,0,0,0,0,0,0,0,0,0,0,0,0,0,0,0,-0.463,-0.463,0,-0.4639,-0.4639,-0.4639,-0.4643,-0.4643,-0.4643,-0.4643,-0.4652,-0.4653,-0.4653,0,0,0,0,0,0,0,0,0,0,0,0,0,-0.4617,-0.4618,-0.463,-0.463,-0.463,-0.4638,-0.4639,-0.4639,-0.4643,-0.4643,-0.4643,-0.4643,-0.4652,-0.4652,-0.4653,0,0,0,0,0,0,0,0,0,0,0,0,0,-0.4624,-0.4618,-0.463,-0.4633,-0.4633,-0.4638,-0.4639,-0.4639,-0.4643,-0.4643,-0.4643,-0.4643,-0.4652,-0.4652,-0.4653,-0.4655,0,0,-0.4654,-0.4654,0,0,0,0,0,0,0,0,-0.4624,-0.4625,-0.4632,-0.4633,-0.4633,-0.464,-0.4638,-0.4644,-0.4643,-0.4639,-0.4643,-0.4643,-0.4648,-0.4649,-0.465,-0.4656,-0.4656,-0.4654,-0.4654,-0.4654,-0.4655,0,0,0,0,0,0,0,-0.4623,-0.4624,-0.4633,-0.4632,-0.4633,-0.4634,-0.4635,-0.4639,-0.4644,-0.464,-0.464,-0.4641,-0.4648,-0.465,-0.4651,-0.4656,-0.4654,-0.4654,-0.4655,-0.4655,-0.4665,-0.4665,0,0,0,0,0,0,-0.4622,-0.4624,-0.4633,-0.4633,-0.4628,-0.4635,-0.4636,-0.4638,-0.4644,-0.4645,-0.4641,-0.4641,-0.4649,-0.465,-0.4651,-0.4655,-0.4654,-0.4655,-0.4655,-0.4665,-0.4665,-0.4665,0,0,0,0,0,0,-0.4622,-0.4623,-0.4633,-0.4629,-0.463,-0.4635,-0.4637,-0.4638,-0.464,-0.4645,-0.4646,-0.4642,-0.4649,-0.4651,-0.4654,-0.4655,-0.4655,-0.4655,-0.4665,-0.4665,-0.4665,-0.4662,0,0,0,0,0,0,-0.4621,-0.4623,-0.4623,-0.4629,-0.463,-0.4635,-0.4637,-0.4638,-0.464,-0.464,-0.4646,-0.4647,-0.465,-0.4654,-0.4655,-0.4656,-0.4656,-0.4665,-0.4665,-0.4665,-0.4662,-0.4662,-0.4662,0,0,0,0,0,-0.4621,-0.4622,-0.4623,-0.4624,-0.4631,-0.4635,-0.4636,-0.464,-0.464,-0.4641,-0.4645,-0.4646,-0.4655,-0.4654,-0.4655,-0.4656,-0.4665,-0.4665,-0.4665,-0.4662,-0.4662,-0.4662,0,0,0,0,0,0,-0.4617,-0.4623,-0.4624,-0.4627,-0.4631,-0.4636,-0.4637,-0.4639,-0.4643,-0.4643,-0.4647,-0.4648,-0.4652,-0.4655,-0.4654,-0.466,-0.466,-0.4661,-0.4658,-0.4658,-0.4657,-0.4657,-0.4656,0,0,0,0,0,-0.4616,-0.4619,-0.4624,-0.4626,-0.4628,-0.4632,-0.4634,-0.4637,-0.4641,-0.4642,-0.4646,-0.465,-0.4653,-0.4656,-0.4659,-0.4663,-0.4664,-0.4664,-0.4664,-0.4664,-0.4664,-0.4667,-0.4667,-0.4666,-0.4666,-0.4666,0,0,-0.4615,-0.4618,-0.462,-0.4625,-0.4628,-0.4631,-0.4633,-0.4636,-0.4639,-0.4643,-0.4646,-0.4649,-0.4654,-0.4658,-0.466,-0.466,-0.4665,-0.4664,-0.4664,-0.4664,-0.4667,-0.4667,-0.4667,-0.4666,-0.4666,-0.4666,0,0,-0.4614,-0.4617,-0.4619,-0.4622,-0.4627,-0.463,-0.4631,-0.4636,-0.4638,-0.4642,-0.4645,-0.4649,-0.4655,-0.4658,-0.4661,-0.4662,-0.4664,-0.4664,-0.4663,-0.4666,-0.4666,-0.4666,-0.4667,-0.4667,-0.4664,-0.4664,-0.4664,0,-0.4611,-0.4616,-0.462,-0.4623,-0.4625,-0.4629,-0.4632,-0.4635,-0.464,-0.4642,-0.4643,-0.4651,-0.4655,-0.466,-0.466,-0.4662,-0.4663,-0.4663,-0.4665,-0.4665,-0.4666,-0.4667,-0.4667,-0.4664,-0.4664,-0.4664,-0.4664,0,-0.4613,-0.4616,-0.4617,-0.4623,-0.4626,-0.4629,-0.4633,-0.4636,-0.4638,-0.4642,-0.4646,-0.4651,-0.4656,-0.4657,-0.466,-0.4663,-0.4663,-0.4664,-0.4665,-0.4666,-0.4667,-0.4667,-0.4663,-0.4663,-0.4663,-0.4664,0,0,-0.4609,-0.4617,-0.4617,-0.462,-0.4626,-0.4629,-0.4633,-0.4637,-0.464,-0.4644,-0.4647,-0.4653,-0.4654,-0.4657,-0.466,-0.4663,-0.4664,-0.4664,-0.4664,-0.4664,-0.4669,-0.4668,-0.4668,-0.4666,-0.4666,-0.4666,-0.4669,0,-0.4609,-0.4614,-0.4619,-0.4623,-0.4626,-0.4631,-0.4634,-0.4638,-0.4642,-0.4645,-0.4649,-0.4653,-0.4655,-0.4657,-0.4659,-0.4664,-0.4665,-0.4663,-0.4669,-0.4669,-0.4668,-0.4669,-0.4667,-0.4669,-0.4669,-0.4669,-0.4669,0,-0.4609,-0.4613,-0.4618,-0.4624,-0.4626,-0.4629,-0.4634,-0.4637,-0.4643,-0.4645,-0.4649,-0.4652,-0.4657,-0.4657,-0.4664,-0.4662,-0.4665,-0.4668,-0.4668,-0.4669,-0.4669,-0.4669,-0.467,-0.467,-0.467,-0.467,-0.467,0,-0.4606,-0.4613,-0.4617,-0.4619,-0.4626,-0.4628,-0.4632,-0.4637,-0.464,-0.4645,-0.4647,-0.4652,-0.4655,-0.466,-0.4664,-0.4664,-0.4671,-0.4672,-0.4673,-0.4673,-0.4674,-0.4674,-0.4675,-0.4676,-0.4676,-0.4676,-0.4676,0,-0.4605,-0.4608,-0.4615,-0.4617,-0.4621,-0.4626,-0.463,-0.4634,-0.4638,-0.4642,-0.4646,-0.465,-0.4656,-0.466,-0.4664,-0.4669,-0.4671,-0.4673,-0.4674,-0.4673,-0.4672,-0.4674,-0.4674,-0.4676,-0.4676,-0.4676,-0.4676,0,-0.4602,-0.4607,-0.4611,-0.4618,-0.462,-0.4622,-0.4629,-0.4632,-0.4636,-0.464,-0.4642,-0.4648,-0.4654,-0.4659,-0.4666,-0.4669,-0.4674,-0.4676,-0.4672,-0.4673,-0.4674,-0.4674,-0.4677,-0.4677,-0.4678,-0.4678,-0.4678,0,-0.4601,-0.4603,-0.4611,-0.4613,-0.4616,-0.4621,-0.4624,-0.4629,-0.4633,-0.464,-0.4642,-0.4648,-0.4652,-0.4661,-0.4667,-0.4673,-0.4674,-0.4675,-0.4675,-0.4674,-0.4674,-0.4674,-0.4675,-0.4675,-0.4675,-0.4674,-0.4674,0,-0.4599,-0.4601,-0.4606,-0.4611,-0.4615,-0.462,-0.4624,-0.4627,-0.4633,-0.4637,-0.4642,-0.4646,-0.4654,-0.466,-0.4667,-0.4671,-0.4674,-0.4675,-0.4675,-0.4674,-0.4672,-0.4673,-0.4672,-0.4674,-0.4674,-0.4674,-0.4674,-0.4674,-0.4597,-0.4599,-0.4605,-0.461,-0.4614,-0.4619,-0.4622,-0.4627,-0.4632,-0.4638,-0.4642,-0.4647,-0.4654,-0.4663,-0.4667,-0.4672,-0.4673,-0.4674,-0.4674,-0.4674,-0.4674,-0.4671,-0.4673,-0.4673,-0.4673,-0.4673,-0.4674,0,-0.4595,-0.4599,-0.4604,-0.4611,-0.4615,-0.4618,-0.4623,-0.4627,-0.4632,-0.4637,-0.4642,-0.4649,-0.4655,-0.4662,-0.4668,-0.4671,-0.4673,-0.4673,-0.4672,-0.4673,-0.4673,-0.4672,-0.4671,-0.4671,-0.4671,-0.4671,-0.4671,-0.4671,-0.4595,-0.4599,-0.4603,-0.461,-0.4614,-0.462,-0.4623,-0.4628,-0.4632,-0.464,-0.4645,-0.4649,-0.4655,-0.4662,-0.4668,-0.467,-0.4672,-0.4672,-0.4674,-0.4673,-0.4673,-0.4674,-0.4672,-0.4672,-0.4672,-0.4674,-0.4674,-0.4674]}]]